Regional Weather Roundup
Issued by NWS

Home | Current Version | Previous Version | Graphics & Text | Print | Product List | Glossary On
Versions: 1 2 3 4 5 6 7 8 9 10 11 12 13 14 15 16 17 18 19 20 21 22 23 24 25 26 27 28 29 30 31 32 33 34 35 36 37 38 39 40 41 42 43 44 45 46 47 48 49 50
000
ASUS43 KOAX 231202
RWRNE

WEATHER ROUNDUP FOR NEBRASKA
NATIONAL WEATHER SERVICE OMAHA NE
700 AM CDT SAT JUL 23 2016

NOTES: SATELLITE DATA IS BEING USED TO AUGMENT CLOUD COVER ABOVE
       12000 FEET.
       "FAIR" INDICATES FEW OR NO CLOUDS BELOW 12,000 FEET WITH NO
       SIGNIFICANT WEATHER AND/OR OBSTRUCTIONS TO VISIBILITY.

  * THESE STATIONS DO NOT REPORT WEATHER SUCH AS RAIN...SNOW OR FOG.

NEZ001>004-019>022-054>056-231300-
NEBRASKA PANHANDLE

CITY           SKY/WX    TMP DP  RH WIND       PRES   REMARKS
SCOTTSBLUFF    CLOUDY    62  58  86 N5        29.95S
6HR MIN TEMP:  61; 6HR MAX TEMP:  67;

ALLIANCE       CLOUDY    63  61  93 CALM      29.93S
6HR MIN TEMP:  62; 6HR MAX TEMP:  67;

CHADRON        CLEAR     64  60  87 SW7       29.87S
6HR MIN TEMP:  64; 6HR MAX TEMP:  74; 6HR PCP:  0.02;

KIMBALL        PTCLDY    66  60  80 S7        30.04R
SIDNEY         CLOUDY    70  62  76 SW9       30.01R
6HR MIN TEMP:  67; 6HR MAX TEMP:  71;

$$

NEZ057>060-069>072-079>082-231300-
SOUTHWEST NEBRASKA

CITY           SKY/WX    TMP DP  RH WIND       PRES   REMARKS
NORTH PLATTE   PTCLDY    68  66  93 S5        29.87S
6HR MIN TEMP:  67; 6HR MAX TEMP:  74; 6HR PCP:  0.19;

IMPERIAL       CLOUDY    72  63  73 S13       29.93R
6HR MIN TEMP:  69; 6HR MAX TEMP:  80; 6HR PCP:  0.08;

LEXINGTON      CLOUDY    71  67  85 CALM      29.85F
MCCOOK         CLOUDY    77  63  61 S18G25    29.86F
6HR MIN TEMP:  70; 6HR MAX TEMP:  77; 6HR PCP:  0.09;

OGALLALA       CLOUDY    69  65  88 CALM      29.95R
$$

NEZ005>010-023>029-035>040-094-231300-
NORTH CENTRAL NEBRASKA

CITY           SKY/WX    TMP DP  RH WIND       PRES   REMARKS
VALENTINE      PTCLDY    69  64  84 S7        29.82F
6HR MIN TEMP:  69; 6HR MAX TEMP:  82; 6HR PCP:  0.18;

AINSWORTH      CLOUDY    68  66  92 NW6       29.83F
BROKEN BOW     PTCLDY    68  66  93 SE5       29.85S
6HR MIN TEMP:  68; 6HR MAX TEMP:  74; 6HR PCP:  0.15;

O`NEILL        CLOUDY    72  67  87 CALM      29.81F
ORD            CLOUDY    71  65  81 S8        29.82F
6HR MIN TEMP:  70; 6HR MAX TEMP:  80; 6HR PCP:  0.34;

THEDFORD       CLOUDY    67  64  90 CALM      29.87F
$$

NEZ041-046>049-061>064-073>077-083>087-231300-
SOUTH CENTRAL NEBRASKA

CITY           SKY/WX    TMP DP  RH WIND       PRES   REMARKS
GRAND ISLAND   CLOUDY    72  69  90 SE7       29.85S
6HR MIN TEMP:  72; 6HR MAX TEMP:  79; 6HR PCP: TRACE;

AURORA         CLOUDY    73  71  92 SE8       29.86S
HASTINGS       CLOUDY    73  68  84 S12G22    29.87F
6HR MIN TEMP:  72; 6HR MAX TEMP:  80; 6HR PCP: TRACE;

HEBRON         CLOUDY    76  69  81 CALM      29.91F
HOLDREGE       LGT RAIN  76  62  60 S16G22    29.86F
KEARNEY *      CLOUDY    77  63  61 S23G29    29.82F
$$

NEZ011>018-030>034-042>045-231300-
NORTHEAST NEBRASKA

CITY           SKY/WX    TMP DP  RH WIND       PRES   REMARKS
NORFOLK        CLOUDY    73  69  87 S9        29.84R
6HR MIN TEMP:  73; 6HR MAX TEMP:  80; 6HR PCP:  0.01;

ALBION         MOCLDY    72  69  89 SE6       29.82F
BLAIR          CLOUDY    81  71  73 S9        29.87F
FREMONT        CLOUDY    78  73  85 SE8       29.86F
TEKAMAH        CLOUDY    79  73  82 S12       29.84F
6HR MIN TEMP:  78; 6HR MAX TEMP:  81; 6HR PCP: TRACE;

WAYNE          CLOUDY    75  73  94 SE9       29.81R
$$

NEZ050>053-065>068-078-088>093-231300-
SOUTHEAST NEBRASKA

CITY           SKY/WX    TMP DP  RH WIND       PRES   REMARKS
LINCOLN        MOCLDY    80  71  74 S12       29.88S
6HR MIN TEMP:  79; 6HR MAX TEMP:  84;

OMAHA EPPLEY   CLOUDY    83  70  64 S8        29.86F
6HR MIN TEMP:  82; 6HR MAX TEMP:  85; 6HR PCP:  0.13;

BEATRICE       CLOUDY    78  69  74 SW6       29.91S
FALLS CITY     LGT RAIN  81  72  74 S7        29.92R
6HR MIN TEMP:  78; 6HR MAX TEMP:  85; 6HR PCP:  0.04;

NEBRASKA CITY  TSTM      78  70  77 SW10      29.91S
PLATTSMOUTH    CLOUDY    78  70  76 S10       29.89S
$$

NEZ044-045-051>053-067-231300-
OMAHA AREA

CITY           SKY/WX    TMP DP  RH WIND       PRES   REMARKS
OMAHA EPPLEY   CLOUDY    83  70  64 S8        29.86F
6HR MIN TEMP:  82; 6HR MAX TEMP:  85; 6HR PCP:  0.13;

BLAIR          CLOUDY    81  71  73 S9        29.87F
FREMONT        CLOUDY    78  73  85 SE8       29.86F
MILLARD        CLOUDY    83  70  66 S5        29.87F
OFFUTT AFB     CLOUDY    81  69  68 S7        29.87F
PLATTSMOUTH    CLOUDY    78  70  76 S10       29.89S
WAHOO          FAIR      77  73  86 SE6       29.86F
$$




USA.gov is the U.S. government's official web portal to all federal, state and local government web resources and services.